User: anonymous
Location: Caltech
(34.1382°N, 118.1253°W)
Time: 04:26:01
(UTC-07:00)
Language:

Cosmos 676 Rocket - Orbit

View from above orbital plane
View from above orbital plane
View from above satellite
View from above satellite

Ground track
Ground track

The orbit data is extracted from the following two-line orbital elements,

1 07434U 74071B   14258.42147567  .00000157  00000-0  62589-4 0  3040
2 07434 074.0462 260.6897 0019889 056.9577 047.1633 14.36279550 92293
Epoch (UTC): 15 September 2014 10:06:55
Eccentricity: 0.0019889
inclination: 74.0462°
perigee height: 756 km
apogee height: 785 km
right ascension of ascending node: 260.6897°
argument of perigee: 56.9577°
revolutions per day: 14.36279550
mean anomaly at epoch: 47.1633°
orbit number at epoch: 9229

The dashed part of the orbit path shows where the satellite is in the earth's shadow,  

DLR